DW5856 Weather Reports


Display with metric or nautical units.
time (UTC)temp
F
wind
direction
speed
MPH
gust
MPH
rain 1hr
in
rain 24hr
in
rain mn
in
humidity
%
barometer
mb
20260507113101 49 282 16.0 27.0 0.00 0.23 0.00 42 1014.2
20260507111542 49 257 16.0 25.0 0.00 0.23 0.00 42 1014.2
20260507110037 49 263 15.0 25.0 0.00 0.23 0.00 41 1014.3
20260507104541 49 265 9.0 18.0 0.00 0.23 0.00 42 1014.4
20260507103033 48 259 9.0 16.0 0.00 0.23 0.00 46 1014.6
20260507101531 48 293 12.0 21.0 0.00 0.23 0.00 45 1014.4
20260507100028 41 299 8.0 14.0 0.00 0.23 0.00 56 1015.0
20260507094528 43 175 5.0 8.0 0.00 0.23 0.00 61 1015.1
20260507093028 46 279 6.0 13.0 0.00 0.23 0.00 49 1015.0
20260507091521 43 279 10.0 16.0 0.00 0.23 0.00 56 1014.9
20260507090018 34 250 3.0 5.0 0.00 0.23 0.00 79 1015.1
20260507084516 33 238 1.0 4.0 0.00 0.23 0.00 81 1015.5
20260507083016 34 117 1.0 5.0 0.00 0.23 0.00 77 1015.5
20260507081520 36 9 1.0 5.0 0.00 0.23 0.00 74 1015.4
20260507080012 43 38 4.0 12.0 0.00 0.23 0.00 56 1015.6
20260507074510 42 261 8.0 10.0 0.00 0.23 0.00 53 1015.6
20260507073006 38 259 4.0 9.0 0.00 0.23 0.00 64 1015.9
20260507071600 34 255 3.0 6.0 0.00 0.23 0.00 80 1016.2
20260507070105 33 252 0.0 4.0 0.00 0.23 0.00 84 1016.4
20260507064555 33 161 6.0 9.0 0.00 0.23 0.00 83 1016.4
20260507063052 33 185 4.0 6.0 0.00 0.23 0.00 83 1016.6
20260507061548 34 279 0.0 5.0 0.00 0.23 0.00 82 1016.8
20260507060045 34 221 0.0 3.0 0.00 0.23 0.00 83 1017.0
20260507054544 34 246 3.0 6.0 0.00 0.23 0.23 83 1017.0
20260507053043 34 250 1.0 4.0 0.00 0.23 0.23 84 1017.1
20260507051542 34 250 2.0 6.0 0.00 0.23 0.23 84 1017.4
20260507050042 34 245 2.0 4.0 0.00 0.23 0.23 83 1017.6
20260507044539 35 245 0.0 5.0 0.00 0.23 0.23 82 1018.1
20260507043053 35 229 2.0 5.0 0.00 0.23 0.23 80 1018.2
20260507041537 35 209 2.0 7.0 0.00 0.23 0.23 80 1018.1
20260507040036 35 232 3.0 6.0 0.00 0.23 0.23 81 1018.4
20260507034537 35 253 4.0 7.0 0.00 0.23 0.23 81 1018.5
20260507033038 36 206 4.0 7.0 0.00 0.23 0.23 78 1018.4
20260507031534 36 209 4.0 7.0 0.00 0.23 0.23 77 1018.4
20260507030034 36 204 4.0 6.0 0.00 0.23 0.23 78 1018.5
20260507024533 37 187 3.0 7.0 0.00 0.23 0.23 76 1018.5
20260507023034 37 186 3.0 8.0 0.00 0.23 0.23 75 1018.5
20260507021534 38 141 3.0 5.0 0.00 0.23 0.23 72 1018.3
20260507020046 39 163 3.0 7.0 0.00 0.23 0.23 70 1018.3
20260507014534 40 166 4.0 9.0 0.00 0.24 0.23 67 1018.3
20260507013031 42 184 4.0 10.0 0.00 0.24 0.23 65 1018.3
20260507011541 42 148 5.0 11.0 0.00 0.24 0.23 64 1018.3
20260507010034 43 184 7.0 13.0 0.00 0.25 0.23 61 1018.3
20260507004531 43 170 7.0 14.0 0.00 0.25 0.23 63 1018.3
20260507003029 42 215 7.0 11.0 0.00 0.25 0.23 67 1018.5
20260507001600 42 226 5.0 13.0 0.00 0.25 0.23 64 1018.5
20260507000032 43 202 8.0 12.0 0.00 0.26 0.23 63 1018.7
20260506234527 44 234 5.0 13.0 0.00 0.26 0.23 61 1018.9
20260506233027 44 218 7.0 12.0 0.00 0.26 0.23 64 1019.0
20260506231524 44 184 6.0 11.0 0.00 0.26 0.23 62 1019.0
20260506230026 44 182 6.0 11.0 0.00 0.28 0.23 64 1019.0
20260506224522 43 208 6.0 14.0 0.00 0.28 0.23 63 1019.0
20260506223028 43 123 6.0 13.0 0.00 0.28 0.23 59 1019.3
20260506221602 43 144 7.0 12.0 0.00 0.28 0.23 55 1019.5
20260506220044 44 166 6.0 12.0 0.00 0.28 0.23 60 1019.7
20260506214542 43 162 7.0 11.0 0.00 0.31 0.23 62 1020.1
20260506213042 43 157 4.0 12.0 0.00 0.31 0.23 58 1020.3
20260506211541 43 176 6.0 11.0 0.00 0.31 0.23 63 1020.5
20260506210052 42 126 2.0 8.0 0.00 0.31 0.23 60 1020.6
20260506204545 42 153 2.0 13.0 0.00 0.34 0.23 55 1020.8
20260506203041 43 159 3.0 10.0 0.00 0.34 0.23 66 1021.1
20260506201539 42 182 3.0 10.0 0.00 0.34 0.23 67 1021.2
20260506200039 41 188 5.0 9.0 0.00 0.34 0.23 71 1021.4
20260506194533 42 117 2.0 11.0 0.00 0.36 0.23 69 1021.6
20260506193037 43 183 2.0 6.0 0.00 0.36 0.23 68 1021.8
20260506191528 41 267 1.0 3.0 0.00 0.36 0.23 67 1022.0
20260506190030 40 292 1.0 4.0 0.00 0.42 0.23 68 1022.2
20260506184535 41 292 0.0 2.0 0.00 0.42 0.23 61 1022.3
20260506183025 41 292 2.0 4.0 0.00 0.42 0.23 62 1022.5
20260506181536 40 334 0.0 0.0 0.02 0.42 0.23 66 1022.7
20260506180026 40 334 0.0 4.0 0.05 0.51 0.23 61 1022.8
20260506174523 41 355 0.0 2.0 0.10 0.51 0.23 63 1022.7
20260506173020 41 355 0.0 0.0 0.10 0.51 0.23 68 1022.7
20260506171519 37 355 2.0 5.0 0.09 0.49 0.21 72 1022.7
20260506170024 38 17 3.0 5.0 0.09 0.60 0.18 70 1022.6
20260506164532 36 309 2.0 5.0 0.06 0.55 0.13 74 1022.8
20260506163013 35 333 0.0 7.0 0.08 0.55 0.13 78 1022.6
20260506161504 34 311 4.0 8.0 0.09 0.54 0.12 80 1022.1
20260506160127 34 309 5.0 8.0 0.08 0.52 0.10 82 1022.2
20260506154559 33 319 6.0 8.0 0.05 0.62 0.07 84 1022.2
20260506153056 33 326 6.0 12.0 0.04 0.60 0.05 85 1022.1
20260506151555 32 36 0.0 0.0 0.02 0.57 0.03 86 1021.9
20260506150101 31 38 0.0 0.0 0.01 0.56 0.02 88 1021.9
20260506144549 31 38 0.0 0.0 0.01 0.63 0.02 90 1021.8
20260506143048 31 38 0.0 0.0 0.00 0.62 0.01 90 1021.8
20260506141546 30 38 0.0 0.0 0.00 0.62 0.01 91 1021.6
20260506140046 30 38 0.0 0.0 0.00 0.62 0.01 91 1021.6
20260506134543 30 38 0.0 0.0 0.00 0.62 0.01 92 1021.3
20260506133054 30 39 0.0 0.0 0.01 0.62 0.01 93 1021.2
20260506131540 30 39 0.0 0.0 0.01 0.62 0.01 92 1021.0
20260506130039 30 39 0.0 0.0 0.01 0.62 0.01 93 1020.7
20260506124536 30 40 0.0 0.0 0.01 0.62 0.01 93 1020.4
20260506123035 30 40 0.0 0.0 0.00 0.61 0.00 93 1020.2
20260506121532 30 40 0.0 0.0 0.00 0.61 0.00 93 1020.0
20260506120049 30 40 0.0 0.0 0.00 0.64 0.00 92 1020.0
20260506114526 30 40 0.0 0.0 0.00 0.64 0.00 92 1019.9